EW4052 Weather Reports


time (UTC)temp
C
wind
direction
speed
KPH
gust
KPH
rain 1hr
cm
rain 24hr
cm
rain mn
cm
humidity
%
barometer
mb
20260903220115 29 277 0.0 14.5 0.00 0.30 0.30 68 1006.1
20260903214544 29 242 1.6 14.5 0.00 0.30 0.30 67 1005.8
20260903213039 29 249 0.0 14.5 0.00 0.30 0.30 67 1005.9
20260903211535 29 163 0.0 22.5 0.00 0.30 0.30 67 1006.2
20260903210031 29 48 1.6 19.3 0.00 0.30 0.30 68 1006.2
20260903204531 28 111 0.0 12.9 0.00 0.30 0.30 67 1006.4
20260903203021 28 349 1.6 19.3 0.00 0.30 0.30 68 1006.4
20260903201517 28 111 0.0 19.3 0.00 0.30 0.30 69 1006.5
20260903200013 27 163 0.0 8.0 0.00 0.30 0.30 69 1006.7
20260903194508 26 117 0.0 11.3 0.00 0.30 0.30 68 1006.9
20260903193004 26 17 0.0 17.7 0.00 0.30 0.30 65 1007.2
20260903191600 25 180 1.6 17.7 0.00 0.30 0.30 54 1007.5
20260903190054 23 342 0.0 9.7 0.00 0.30 0.30 29 1007.7
20260903184550 23 25 0.0 9.7 0.00 0.30 0.30 26 1008.0
20260903183047 23 325 0.0 1.6 0.00 0.30 0.30 27 1008.3
20260903181541 23 112 0.0 11.3 0.00 0.30 0.30 36 1008.8
20260903180045 23 224 0.0 6.4 0.00 0.30 0.30 45 1008.4
20260903174535 23 355 0.0 0.0 0.00 0.30 0.30 46 1008.7
20260903173027 22 241 0.0 0.0 0.00 0.30 0.30 39 1009.0
20260903171529 22 240 0.0 0.0 0.00 0.30 0.30 31 1008.9
20260903170033 22 9 0.0 8.0 0.03 0.30 0.30 16 1009.1
20260903164520 21 243 0.0 8.0 0.03 0.30 0.30 100 1009.7
20260903163015 21 103 0.0 0.0 0.03 0.30 0.30 100 1009.9
20260903161505 20 240 0.0 0.0 0.03 0.30 0.30 100 1009.7
20260903160100 20 111 0.0 0.0 0.00 0.28 0.28 100 1009.9
20260903154556 20 252 0.0 0.0 0.00 0.28 0.28 100 1010.7
20260903153051 20 295 0.0 0.0 0.08 0.28 0.28 100 1010.7
20260903151550 20 180 0.0 0.0 0.08 0.28 0.28 100 1010.6
20260903150104 20 226 4.8 19.3 0.08 0.28 0.28 100 1011.8
20260903144538 20 200 1.6 11.3 0.05 0.25 0.25 100 1011.2
20260903143033 20 88 0.0 0.0 0.00 0.20 0.20 100 1010.7
20260903141535 20 88 0.0 0.0 0.00 0.20 0.20 100 1010.3
20260903140036 20 91 0.0 6.4 0.00 0.20 0.20 100 1009.8
20260903134520 20 309 0.0 0.0 0.00 0.20 0.20 100 1009.7
20260903133020 20 133 0.0 0.0 0.00 0.20 0.20 100 1009.8
20260903131515 -17 312 0.0 0.0 0.00 0.20 0.20 1010.0
20260903130007 -17 315 0.0 0.0 0.00 0.20 0.20 1009.9
20260903124503 -17 316 0.0 0.0 0.00 0.20 0.20 1009.8
20260903123058 -17 339 0.0 0.0 0.00 0.20 0.20 1010.1
20260903121557 -17 12 0.0 17.7 0.00 0.20 0.20 1010.4
20260903120105 -17 35 0.0 0.0 0.00 0.20 0.20 1010.3
20260903114554 -17 49 0.0 0.0 0.00 0.20 0.20 1010.1
20260903113057 -17 49 0.0 0.0 0.00 0.20 0.20 1009.8
20260903111553 -17 22 1.6 17.7 0.00 0.20 0.20 1009.8
20260903110101 -17 38 9.7 22.5 0.00 0.20 0.20 1010.6
20260903104554 -17 328 9.7 12.9 0.00 0.23 0.20 1011.2
20260903103047 21 348 0.0 9.7 0.00 0.23 0.20 100 1010.7
20260903101543 21 267 0.0 0.0 0.05 0.23 0.20 100 1010.1
20260903100038 22 267 0.0 0.0 0.05 0.23 0.20 19 1010.0
20260903094537 23 250 6.4 27.4 0.05 0.30 0.20 42 1010.2
20260903093029 22 243 11.3 27.4 0.05 0.30 0.20 2 1010.4
20260903091523 21 186 0.0 0.0 0.15 0.25 0.15 100 1009.7
20260903090019 21 186 0.0 0.0 0.15 0.25 0.15 100 1009.1
20260903084532 21 186 0.0 0.0 0.15 0.36 0.15 100 1009.0
20260903083010 22 184 0.0 9.7 0.15 0.36 0.15 41 1008.8
20260903081506 24 207 0.0 14.5 0.00 0.20 0.00 69 1009.6
20260903080001 23 221 0.0 12.9 0.00 0.20 0.00 69 1009.0
20260903074602 23 140 0.0 12.9 0.00 0.20 0.00 38 1009.6
20260903073052 23 219 1.6 12.9 0.00 0.20 0.00 39 1009.5
20260903071548 21 226 0.0 6.4 0.00 0.20 0.00 100 1009.2
20260903070043 21 96 0.0 0.0 0.00 0.20 0.00 100 1008.6
20260903064538 21 96 0.0 0.0 0.00 0.20 0.00 100 1008.5
20260903063034 21 96 0.0 0.0 0.00 0.20 0.00 100 1008.6
20260903061536 21 96 0.0 0.0 0.00 0.20 0.00 100 1008.6
20260903060037 21 96 0.0 0.0 0.00 0.20 0.00 100 1008.8
20260903054522 21 96 0.0 0.0 0.00 0.20 0.00 100 1008.6
20260903053028 21 96 0.0 0.0 0.00 0.20 0.00 100 1008.5
20260903051513 21 96 0.0 0.0 0.00 0.20 0.00 100 1008.6
20260903050010 22 96 0.0 0.0 0.00 0.20 0.00 100 1008.7
20260903044511 22 96 0.0 0.0 0.00 0.20 0.20 100 1008.6
20260903043015 22 96 0.0 0.0 0.00 0.20 0.20 100 1008.5
20260903041506 22 96 0.0 0.0 0.00 0.20 0.20 100 1008.6
20260903040008 23 96 0.0 0.0 0.00 0.20 0.20 100 1008.7
20260903034506 23 96 0.0 0.0 0.00 0.20 0.20 100 1008.7
20260903033005 23 96 0.0 0.0 0.00 0.20 0.20 100 1008.9
20260903031504 23 96 0.0 0.0 0.00 0.20 0.20 100 1008.8
20260903030003 23 96 0.0 0.0 0.00 0.20 0.20 100 1008.8
20260903024504 23 96 0.0 0.0 0.00 0.20 0.20 100 1008.8
20260903023002 23 96 0.0 0.0 0.00 0.20 0.20 100 1008.8
20260903021506 23 96 0.0 0.0 0.00 0.20 0.20 100 1008.6
20260903020105 24 96 0.0 0.0 0.00 0.20 0.20 100 1008.5
20260903014602 24 96 0.0 0.0 0.00 0.20 0.20 3 1008.5
20260903013050 24 96 0.0 0.0 0.00 0.20 0.20 4 1008.2
20260903011546 25 96 0.0 0.0 0.00 0.20 0.20 16 1008.1
20260903010040 25 96 0.0 0.0 0.00 0.20 0.20 30 1008.1
20260903004537 25 96 0.0 0.0 0.00 0.20 0.20 45 1008.2
20260903003032 26 96 0.0 0.0 0.00 0.20 0.20 49 1008.2
20260903001528 26 96 0.0 0.0 0.00 0.20 0.20 53 1008.2
20260903000025 27 96 0.0 0.0 0.00 0.20 0.20 59 1008.1
20260902234518 27 96 0.0 0.0 0.00 0.20 0.20 65 1008.0
20260902233014 27 101 0.0 0.0 0.00 0.20 0.20 67 1008.1
20260902231512 28 105 0.0 6.4 0.00 0.20 0.20 69 1008.1
20260902230005 28 300 0.0 0.0 0.00 0.20 0.20 68 1008.2
20260902224607 27 300 0.0 0.0 0.00 0.20 0.20 67 1008.2
20260902223056 28 300 0.0 0.0 0.00 0.20 0.20 69 1008.1
20260902221552 28 301 0.0 8.0 0.00 0.20 0.20 69 1008.1